Wind_Speed
82 86 87 90 89 94 95 94 97 100 105 106 105 101 103 104 105 106 104 103 102 102 103 104 105 106 104 103 104 104 104 103 104 107 110 109 107 108 103 103 106 108 106 99
72 76 86 92 92 92 96 97 98 102 105 104 106 104 104 106 107 106 108 107 111 110 111 115 116 116 112 111 111 112 113 114 115 117 113 114 114 112 111 110 107 105 102 94
66 68 70 75 80 85 89 91 93 97 98 102 106 106 106 105 104 104 105 108 110 113 111 112 116 117 116 114 113 114 116 117 118 119 119 107 100 101 99 94 89 89 86 84
60 63 65 67 69 74 74 78 81 83 85 86 90 91 94 95 97 99 105 114 111 109 110 113 113 113 112 108 106 103 101 101 105 105 96 89 84 85 85 85 84 82 81 79
57 58 61 63 65 65 67 70 72 75 78 77 83 84 82 92 95 99 97 96 94 93 96 99 98 94 90 90 90 89 92 89 88 89 90 86 84 83 80 77 74 73 73 73
45 45 45 49 52 58 62 64 69 71 73 74 75 77 73 76 82 80 81 82 83 87 87 84 83 82 82 81 80 79 78 79 79 80 80 77 73 71 68 65 62 59 57 55
39 43 48 47 47 47 47 47 48 46 46 46 52 51 47 69 72 75 78 78 78 80 81 82 81 79 78 79 79 78 70 66 66 66 62 62 64 62 58 56 55 55 56 58
50 51 49 49 49 49 53 53 55 52 55 54 54 50 54 60 60 60 59 55 56 56 55 54 50 49 52 55 57 59 61 60 59 54 54 54 55 57 59 61 61 60 61 63
51 55 54 53 55 56 58 61 60 59 59 59 59 60 63 63 64 62 63 61 56 57 58 58 58 56 55 56 58 61 64 60 57 58 58 58 60 61 63 64 67 68 68 69
57 59 59 60 61 60 61 62 59 61 60 61 63 67 72 73 75 75 75 74 71 67 69 69 68 68 68 66 65 65 68 67 66 66 68 67 67 69 71 72 73 73 76 77
64 64 64 66 69 67 64 68 67 69 67 66 66 67 71 74 78 80 79 81 83 83 83 83 81 79 76 74 73 73 73 73 75 75 75 75 75 76 79 82 83 82 83 84
65 67 70 71 71 72 72 72 76 74 75 74 72 69 77 81 83 84 85 83 83 85 87 90 93 90 86 85 83 82 82 81 82 83 83 83 84 85 85 88 90 93 95 95
65 66 70 73 73 76 78 78 79 80 81 80 81 76 82 88 89 86 90 92 91 91 94 95 95 94 94 94 93 92 91 89 87 87 90 93 94 95 96 97 99 101 103 106
66 68 70 72 75 76 78 81 85 85 83 85 82 84 88 93 91 89 95 95 96 94 94 97 97 97 96 96 96 96 96 96 97 99 100 102 104 106 107 108 109 110 110 111
65 69 68 70 73 74 76 80 86 85 85 84 86 92 91 94 94 92 92 90 86 89 91 92 98 101 100 98 94 95 96 97 98 99 99 101 101 103 104 104 105 106 106 107
71 73 72 76 80 80 82 87 88 91 93 93 92 92 92 93 91 88 84 83 82 82 85 85 89 90 90 89 88 87 89 90 91 93 95 96 95 92 93 96 99 99 97 93
52 58 60 65 69 73 81 88 91 91 91 89 86 83 82 81 78 76 75 72 71 72 75 76 77 79 78 78 79 78 79 81 81 82 82 82 82 82 83 86 88 89 89 87
42 43 43 47 53 59 66 70 71 70 69 66 64 64 64 64 64 63 66 61 60 59 59 61 63 66 68 70 71 70 71 72 72 74 72 71 73 72 72 74 77 77 78 74
44 44 45 46 49 53 63 62 61 57 55 55 53 52 51 51 50 46 45 47 49 49 50 51 52 54 55 55 55 56 57 57 56 56 56 59 61 63 67 71 71 66 67 59
45 44 45 46 48 49 57 51 47 44 45 46 40 37 35 36 36 32 32 31 31 32 32 33 34 37 37 36 37 38 37 35 35 40 46 50 54 55 54 56 58 54 49 47
46 46 45 44 45 45 45 39 39 35 34 30 29 27 28 26 28 24 21 20 21 21 22 23 23 21 22 20 20 19 22 25 27 32 37 42 46 47 48 48 47 47 39 33
45 41 40 39 38 35 36 32 28 27 25 23 23 24 24 23 23 22 19 16 16 16 16 15 10 6 5 6 11 17 18 20 21 26 33 40 42 43 42 42 40 39 40 35
40 37 37 35 30 29 27 24 22 21 21 21 23 22 21 20 19 16 14 13 12 10 6 4 1 7 4 5 9 13 22 25 29 30 29 35 38 38 40 41 38 36 32 34
35 37 35 28 23 26 21 20 19 17 18 20 19 18 19 18 16 16 14 12 12 8 9 11 8 3 3 8 13 26 30 28 30 35 39 39 40 38 38 40 39 36 34 31
34 33 27 23 21 21 19 16 15 17 18 17 16 18 18 17 14 15 18 14 15 18 14 10 6 3 10 14 19 27 33 38 39 40 42 45 39 35 35 33 35 37 34 32
32 26 23 18 19 16 15 13 14 17 17 16 17 17 13 13 25 22 19 21 19 18 11 10 4 7 14 18 27 28 32 39 43 47 49 47 38 35 34 34 30 31 32 31
Wind_Direction
230 232 234 235 237 239 240 242 245 247 248 249 251 252 253 256 257 257 257 258 259 259 262 264 266 268 269 269 268 266 268 266 269 271 271 272 273 275 277 278 282 284 285 287
232 234 237 239 239 241 243 246 248 251 253 253 254 258 259 259 260 260 260 262 261 261 261 262 265 267 266 267 269 270 272 274 273 271 270 272 273 273 275 277 278 279 280 282
224 227 230 234 238 242 245 248 249 250 252 253 253 254 256 258 259 260 260 260 259 260 262 262 264 267 269 270 271 271 271 271 272 273 276 279 277 276 277 279 277 276 276 276
227 229 231 233 235 235 239 241 243 245 248 250 250 251 253 254 254 254 253 256 260 261 261 263 265 266 268 270 270 271 273 273 275 275 276 276 275 274 275 274 274 273 273 271
231 232 234 235 238 237 239 242 243 245 246 250 254 250 255 253 253 254 256 260 263 265 263 262 264 267 269 269 270 270 271 273 275 276 275 273 273 273 274 275 275 274 273 271
217 221 226 234 238 241 243 246 247 249 250 251 254 255 252 256 257 257 257 258 260 262 264 264 264 265 266 266 267 268 268 268 269 271 273 274 271 270 271 271 272 270 268 266
234 230 228 224 225 224 224 228 235 235 237 238 241 245 239 250 251 255 257 259 261 263 264 265 265 265 266 267 266 265 265 265 265 266 267 269 273 275 272 267 264 262 264 266
237 239 240 242 242 244 242 238 238 242 243 240 242 246 252 254 256 259 259 260 262 260 264 260 260 261 262 263 263 261 258 256 258 259 260 263 265 267 269 270 268 266 267 268
243 246 248 249 249 250 250 247 249 251 254 256 259 260 258 262 263 262 262 260 255 257 257 259 261 259 259 260 260 263 267 268 266 264 265 263 263 264 266 268 272 272 269 268
247 249 249 251 255 253 255 258 258 257 255 256 258 259 261 262 263 264 264 265 264 262 264 263 261 261 261 261 262 266 269 271 271 270 270 269 269 269 269 268 268 270 270 271
249 251 252 254 255 256 256 259 259 259 260 260 260 262 262 263 265 266 268 268 268 268 268 268 266 264 263 264 264 265 267 268 269 269 270 270 271 272 274 275 272 269 270 271
250 253 254 253 256 257 258 257 259 260 261 262 261 262 265 265 264 266 268 267 267 269 269 267 265 267 267 267 268 269 268 268 268 268 271 273 274 273 273 273 275 275 275 274
250 252 255 257 257 258 259 260 261 261 261 263 264 264 263 265 265 266 268 270 271 270 269 267 268 269 269 267 266 267 268 270 273 275 274 274 275 275 275 275 274 273 273 274
251 252 254 258 260 259 260 260 261 262 263 262 266 264 265 265 267 268 268 269 269 268 269 267 265 265 267 266 268 271 273 274 274 275 274 274 274 275 274 273 273 272 271 270
255 256 255 258 261 264 265 266 266 267 266 267 267 270 269 272 272 270 270 270 268 265 264 262 263 264 266 269 272 274 275 275 275 275 276 276 277 277 278 278 277 275 273 272
263 261 261 262 262 265 266 268 269 270 272 272 271 271 271 271 271 271 271 270 267 266 265 265 264 266 268 270 271 271 272 274 274 276 278 278 279 279 278 278 278 279 278 274
268 268 267 267 267 266 265 265 267 268 269 270 271 272 272 272 272 274 273 272 271 268 266 267 268 268 269 271 272 274 275 276 278 279 282 281 283 283 282 282 282 281 282 280
272 272 271 271 270 269 268 267 268 270 272 274 274 272 272 273 273 272 272 272 271 270 269 268 268 268 268 269 271 274 276 278 280 281 283 284 283 283 282 284 283 284 285 282
279 276 277 277 277 276 273 270 273 275 276 274 274 275 274 272 272 273 273 271 270 269 267 266 266 266 268 270 272 274 275 279 283 284 282 281 283 283 281 281 284 286 284 282
284 285 282 279 279 274 272 275 273 272 270 271 272 270 270 271 273 276 274 273 274 275 274 272 268 269 271 273 274 278 282 286 288 289 290 289 289 289 289 287 288 289 284 277
286 287 290 289 283 280 276 275 271 267 262 262 265 268 271 273 273 277 275 272 268 265 264 269 272 273 277 277 282 281 285 294 299 306 301 301 299 297 293 293 292 291 293 285
286 288 291 286 282 278 276 269 263 260 262 263 265 264 265 266 268 271 269 259 255 260 264 265 267 283 273 265 290 297 301 307 314 326 330 315 303 303 302 296 294 292 292 293
288 293 291 284 278 272 263 258 255 252 256 259 260 262 263 261 263 267 270 269 260 238 204 123 157 131 31 351 329 337 326 323 328 330 328 328 314 306 303 300 295 291 291 287
291 292 285 281 273 256 256 249 248 251 251 252 256 258 262 266 264 261 253 204 164 141 141 136 114 67 310 315 342 350 341 341 345 345 340 334 321 308 306 297 294 289 287 283
293 285 281 270 254 253 248 243 242 240 242 246 253 259 259 255 244 185 164 142 133 125 121 113 97 10 353 357 357 354 356 356 350 346 344 336 321 310 306 301 291 287 281 277
288 281 270 254 248 246 242 235 232 235 239 244 240 240 248 195 165 157 146 135 136 133 130 129 81 14 6 1 357 355 355 355 351 349 344 336 322 317 313 310 302 283 278 272
Height
10720 10729 10733 10734 10742 10744 10752 10761 10760 10763 10763 10775 10782 10793 10793 10792 10796 10802 10804 10804 10806 10807 10802 10801 10797 10803 10809 10813 10815 10818 10822 10824 10819 10813 10809 10810 10816 10819 10820 10817 10811 10807 10808 10810
10713 10713 10716 10722 10729 10733 10740 10747 10750 10751 10753 10767 10770 10777 10777 10777 10779 10783 10785 10787 10781 10786 10786 10783 10778 10778 10792 10798 10800 10798 10798 10794 10786 10786 10795 10796 10796 10797 10800 10800 10799 10795 10795 10789
10698 10700 10706 10713 10719 10724 10728 10734 10736 10738 10738 10748 10751 10757 10756 10760 10764 10764 10762 10753 10757 10765 10768 10768 10766 10766 10771 10777 10777 10773 10768 10765 10764 10765 10772 10780 10775 10771 10772 10775 10775 10773 10774 10775
10687 10691 10698 10704 10708 10710 10716 10717 10721 10726 10728 10731 10732 10741 10739 10738 10738 10734 10723 10724 10741 10752 10754 10753 10752 10749 10750 10750 10752 10749 10743 10739 10737 10746 10756 10755 10751 10750 10750 10755 10755 10751 10751 10753
10673 10681 10683 10685 10688 10695 10700 10701 10706 10707 10710 10713 10708 10722 10722 10713 10713 10710 10721 10725 10727 10726 10727 10730 10732 10731 10728 10727 10728 10726 10725 10721 10719 10720 10727 10735 10733 10732 10729 10730 10731 10731 10727 10726
10663 10667 10671 10674 10680 10683 10690 10690 10693 10696 10698 10704 10696 10698 10708 10692 10693 10699 10698 10704 10706 10702 10707 10714 10715 10713 10710 10710 10710 10710 10710 10708 10706 10705 10706 10708 10710 10713 10715 10713 10712 10709 10707 10705
10657 10657 10657 10661 10664 10668 10671 10673 10674 10679 10681 10684 10679 10677 10685 10662 10674 10678 10685 10692 10693 10687 10691 10694 10698 10698 10697 10695 10694 10691 10691 10691 10690 10691 10693 10691 10690 10693 10694 10694 10695 10696 10694 10689
10647 10647 10652 10656 10658 10661 10662 10663 10664 10666 10668 10668 10669 10673 10667 10661 10665 10669 10672 10677 10676 10675 10674 10677 10677 10678 10679 10678 10677 10675 10674 10675 10677 10679 10681 10684 10682 10679 10677 10674 10675 10678 10678 10675
10636 10634 10638 10643 10644 10646 10647 10648 10654 10656 10658 10659 10660 10660 10656 10650 10648 10654 10651 10657 10662 10660 10662 10662 10661 10662 10663 10663 10661 10658 10657 10660 10663 10664 10665 10667 10665 10664 10661 10660 10656 10656 10659 10659
10622 10622 10625 10626 10626 10630 10631 10631 10637 10638 10642 10645 10644 10642 10635 10635 10631 10631 10634 10637 10643 10645 10641 10642 10644 10645 10646 10646 10646 10646 10643 10644 10645 10645 10644 10645 10646 10644 10641 10641 10639 10639 10637 10636
10607 10609 10612 10610 10607 10611 10619 10614 10618 10617 10622 10625 10628 10627 10622 10618 10610 10611 10619 10621 10620 10621 10622 10620 10622 10624 10626 10628 10628 10628 10628 10627 10625 10624 10624 10624 10624 10624 10621 10618 10616 10617 10617 10614
10592 10593 10592 10593 10594 10594 10596 10601 10597 10600 10602 10604 10609 10617 10604 10597 10594 10592 10591 10597 10598 10595 10597 10598 10595 10599 10605 10607 10609 10608 10606 10603 10600 10599 10602 10604 10602 10601 10600 10596 10591 10588 10584 10584
10576 10579 10576 10575 10579 10578 10578 10579 10578 10580 10580 10585 10585 10597 10586 10573 10573 10580 10571 10568 10573 10579 10573 10570 10571 10575 10579 10579 10577 10576 10577 10581 10583 10583 10578 10574 10573 10573 10571 10570 10566 10562 10558 10552
10563 10561 10562 10559 10556 10559 10559 10558 10553 10554 10563 10563 10570 10567 10558 10549 10557 10560 10550 10550 10546 10547 10546 10544 10545 10548 10549 10548 10550 10556 10558 10558 10557 10554 10552 10549 10543 10539 10537 10535 10533 10531 10527 10523
10547 10544 10549 10547 10541 10539 10539 10530 10524 10534 10536 10538 10536 10534 10536 10530 10527 10527 10527 10526 10525 10519 10517 10518 10519 10520 10522 10525 10532 10534 10533 10530 10526 10523 10520 10517 10513 10507 10500 10495 10491 10488 10484 10480
10526 10527 10532 10527 10524 10526 10518 10508 10508 10503 10503 10508 10508 10507 10505 10503 10500 10498 10501 10498 10496 10498 10496 10498 10498 10498 10502 10505 10507 10507 10505 10503 10501 10499 10494 10488 10483 10480 10472 10463 10455 10450 10445 10444
10510 10509 10508 10501 10502 10498 10495 10492 10488 10484 10484 10483 10485 10485 10481 10478 10478 10476 10474 10475 10476 10475 10475 10476 10479 10479 10481 10483 10483 10484 10482 10479 10477 10473 10468 10462 10458 10453 10444 10435 10426 10419 10411 10405
10497 10495 10493 10487 10482 10478 10473 10470 10468 10466 10465 10463 10465 10464 10461 10459 10458 10457 10452 10456 10457 10459 10458 10458 10459 10460 10462 10463 10464 10466 10463 10460 10458 10454 10448 10441 10433 10426 10417 10408 10399 10391 10383 10376
10479 10478 10476 10472 10467 10461 10452 10452 10451 10450 10449 10445 10445 10446 10445 10440 10438 10441 10440 10438 10438 10440 10441 10442 10444 10444 10446 10448 10451 10451 10448 10446 10440 10434 10429 10420 10413 10406 10397 10388 10378 10370 10360 10353
10462 10460 10457 10454 10450 10445 10435 10435 10436 10436 10433 10431 10432 10432 10431 10429 10427 10429 10428 10427 10426 10425 10426 10428 10429 10431 10434 10437 10437 10436 10433 10429 10424 10418 10411 10403 10395 10386 10377 10368 10359 10351 10342 10336
10447 10442 10439 10434 10431 10429 10423 10423 10421 10421 10421 10422 10423 10423 10421 10421 10418 10420 10421 10421 10420 10420 10420 10421 10422 10425 10427 10428 10428 10426 10423 10419 10413 10406 10396 10386 10376 10367 10359 10350 10342 10335 10328 10322
10432 10429 10424 10420 10417 10414 10411 10410 10411 10413 10414 10416 10415 10415 10415 10415 10414 10414 10415 10415 10416 10415 10415 10417 10418 10421 10422 10423 10422 10419 10416 10409 10401 10392 10383 10373 10363 10354 10345 10337 10330 10323 10317 10313
10418 10414 10409 10406 10404 10402 10401 10402 10404 10405 10406 10407 10407 10408 10408 10408 10408 10408 10409 10410 10410 10411 10413 10415 10417 10419 10420 10419 10418 10414 10409 10401 10392 10380 10369 10361 10352 10343 10334 10326 10320 10313 10308 10306
10406 10399 10395 10396 10395 10392 10395 10396 10397 10399 10400 10400 10402 10402 10402 10403 10404 10404 10405 10406 10408 10411 10412 10415 10416 10417 10417 10416 10415 10409 10401 10392 10380 10368 10359 10349 10340 10332 10323 10315 10308 10303 10300 10297
10391 10387 10386 10385 10385 10386 10388 10390 10392 10393 10394 10395 10396 10397 10398 10399 10400 10401 10404 10407 10408 10410 10413 10415 10417 10418 10416 10412 10408 10402 10394 10384 10372 10360 10348 10338 10329 10321 10312 10304 10296 10291 10288 10287
10379 10378 10377 10378 10379 10381 10383 10385 10387 10387 10389 10391 10393 10393 10393 10395 10398 10401 10405 10406 10409 10412 10414 10415 10416 10416 10413 10408 10403 10396 10387 10376 10364 10351 10339 10328 10318 10309 10300 10292 10286 10280 10276 10276